Year,Month,Day,Hour,Minute,Value (Times are PST for barometer in hPa)
2016,03,12,00,00,989.37
2016,03,12,00,01,989.40
2016,03,12,00,02,989.44
2016,03,12,00,03,989.37
2016,03,12,00,04,989.40
2016,03,12,00,05,989.40
2016,03,12,00,06,989.40
2016,03,12,00,07,989.37
2016,03,12,00,08,989.37
2016,03,12,00,09,989.44
2016,03,12,00,10,989.44
2016,03,12,00,11,989.40
2016,03,12,00,12,989.44
2016,03,12,00,13,989.44
2016,03,12,00,14,989.37
2016,03,12,00,15,989.37
2016,03,12,00,16,989.27
2016,03,12,00,17,989.30
2016,03,12,00,18,989.33
2016,03,12,00,19,989.40
2016,03,12,00,20,989.40
2016,03,12,00,21,989.37
2016,03,12,00,22,989.40
2016,03,12,00,23,989.47
2016,03,12,00,24,989.47
2016,03,12,00,25,989.40
2016,03,12,00,26,989.37
2016,03,12,00,27,989.37
2016,03,12,00,28,989.40
2016,03,12,00,29,989.47
2016,03,12,00,30,989.47
2016,03,12,00,31,989.40
2016,03,12,00,32,989.40
2016,03,12,00,33,989.37
2016,03,12,00,34,989.40
2016,03,12,00,35,989.47
2016,03,12,00,36,989.47
2016,03,12,00,37,989.50
2016,03,12,00,38,989.50
2016,03,12,00,39,989.47
2016,03,12,00,40,989.47
2016,03,12,00,41,989.44
2016,03,12,00,42,989.47
2016,03,12,00,43,989.44
2016,03,12,00,44,989.40
2016,03,12,00,45,989.44
2016,03,12,00,46,989.47
2016,03,12,00,47,989.54
2016,03,12,00,48,989.50
2016,03,12,00,49,989.47
2016,03,12,00,50,989.50
2016,03,12,00,51,989.47
2016,03,12,00,52,989.50
2016,03,12,00,53,989.50
2016,03,12,00,54,989.47
2016,03,12,00,55,989.50
2016,03,12,00,56,989.50
2016,03,12,00,57,989.50
2016,03,12,00,58,989.54
2016,03,12,00,59,989.47
2016,03,12,01,00,989.40
2016,03,12,01,01,989.40
2016,03,12,01,02,989.37
2016,03,12,01,03,989.37
2016,03,12,01,04,989.30
2016,03,12,01,05,989.30
2016,03,12,01,06,989.33
2016,03,12,01,07,989.33
2016,03,12,01,08,989.33
2016,03,12,01,09,989.37
2016,03,12,01,10,989.40
2016,03,12,01,11,989.33
2016,03,12,01,12,989.37
2016,03,12,01,13,989.33
2016,03,12,01,14,989.33
2016,03,12,01,15,989.37
2016,03,12,01,16,989.27
2016,03,12,01,17,989.33
2016,03,12,01,18,989.33
2016,03,12,01,19,989.33
2016,03,12,01,20,989.37
2016,03,12,01,21,989.30
2016,03,12,01,22,989.33
2016,03,12,01,23,989.37
2016,03,12,01,24,989.40
2016,03,12,01,25,989.44
2016,03,12,01,26,989.47
2016,03,12,01,27,989.47
2016,03,12,01,28,989.50
2016,03,12,01,29,989.47
2016,03,12,01,30,989.50
2016,03,12,01,31,989.47
2016,03,12,01,32,989.50
2016,03,12,01,33,989.54
2016,03,12,01,34,989.54
2016,03,12,01,35,989.54
2016,03,12,01,36,989.54
2016,03,12,01,37,989.54
2016,03,12,01,38,989.50
2016,03,12,01,39,989.54
2016,03,12,01,40,989.54
2016,03,12,01,41,989.50
2016,03,12,01,42,989.54
2016,03,12,01,43,989.50
2016,03,12,01,44,989.60
2016,03,12,01,45,989.64
2016,03,12,01,46,989.64
2016,03,12,01,47,989.57
2016,03,12,01,48,989.57
2016,03,12,01,49,989.60
2016,03,12,01,50,989.64
2016,03,12,01,51,989.71
2016,03,12,01,52,989.71
2016,03,12,01,53,989.67
2016,03,12,01,54,989.71
2016,03,12,01,55,989.67
2016,03,12,01,56,989.67
2016,03,12,01,57,989.67
2016,03,12,01,58,989.74
2016,03,12,01,59,989.74
2016,03,12,02,00,989.74
2016,03,12,02,01,989.71
2016,03,12,02,02,989.64
2016,03,12,02,03,989.60
2016,03,12,02,04,989.57
2016,03,12,02,05,989.50
2016,03,12,02,06,989.44
2016,03,12,02,07,989.40
2016,03,12,02,08,989.40
2016,03,12,02,09,989.44
2016,03,12,02,10,989.40
2016,03,12,02,11,989.44
2016,03,12,02,12,989.44
2016,03,12,02,13,989.47
2016,03,12,02,14,989.44
2016,03,12,02,15,989.44
2016,03,12,02,16,989.44
2016,03,12,02,17,989.34
2016,03,12,02,18,989.40
2016,03,12,02,19,989.37
2016,03,12,02,20,989.33
2016,03,12,02,21,989.33
2016,03,12,02,22,989.27
2016,03,12,02,23,989.27
2016,03,12,02,24,989.27
2016,03,12,02,25,989.27
2016,03,12,02,26,989.30
2016,03,12,02,27,989.33
2016,03,12,02,28,989.30
2016,03,12,02,29,989.33
2016,03,12,02,30,989.33
2016,03,12,02,31,989.33
2016,03,12,02,32,989.37
2016,03,12,02,33,989.44
2016,03,12,02,34,989.47
2016,03,12,02,35,989.47
2016,03,12,02,36,989.47
2016,03,12,02,37,989.47
2016,03,12,02,38,989.50
2016,03,12,02,39,989.47
2016,03,12,02,40,989.54
2016,03,12,02,41,989.54
2016,03,12,02,42,989.57
2016,03,12,02,43,989.57
2016,03,12,02,44,989.60
2016,03,12,02,45,989.64
2016,03,12,02,46,989.64
2016,03,12,02,47,989.64
2016,03,12,02,48,989.64
2016,03,12,02,49,989.57
2016,03,12,02,50,989.64
2016,03,12,02,51,989.67
2016,03,12,02,52,989.67
2016,03,12,02,53,989.74
2016,03,12,02,54,989.77
2016,03,12,02,55,989.84
2016,03,12,02,56,989.88
2016,03,12,02,57,989.84
2016,03,12,02,58,989.81
2016,03,12,02,59,989.77
2016,03,12,03,00,989.77
2016,03,12,03,01,989.77
2016,03,12,03,02,989.81
2016,03,12,03,03,989.84
2016,03,12,03,04,989.81
2016,03,12,03,05,989.77
2016,03,12,03,06,989.77
2016,03,12,03,07,989.81
2016,03,12,03,08,989.84
2016,03,12,03,09,989.88
2016,03,12,03,10,989.94
2016,03,12,03,11,989.88
2016,03,12,03,12,989.77
2016,03,12,03,13,989.74
2016,03,12,03,14,989.60
2016,03,12,03,15,989.57
2016,03,12,03,16,989.54
2016,03,12,03,17,989.57
2016,03,12,03,18,989.57
2016,03,12,03,19,989.54
2016,03,12,03,20,989.50
2016,03,12,03,21,989.47
2016,03,12,03,22,989.44
2016,03,12,03,23,989.44
2016,03,12,03,24,989.40
2016,03,12,03,25,989.40
2016,03,12,03,26,989.44
2016,03,12,03,27,989.47
2016,03,12,03,28,989.47
2016,03,12,03,29,989.54
2016,03,12,03,30,989.50
2016,03,12,03,31,989.44
2016,03,12,03,32,989.37
2016,03,12,03,33,989.23
2016,03,12,03,34,989.27
2016,03,12,03,35,989.33
2016,03,12,03,36,989.44
2016,03,12,03,37,989.47
2016,03,12,03,38,989.40
2016,03,12,03,39,989.37
2016,03,12,03,40,989.30
2016,03,12,03,41,989.37
2016,03,12,03,42,989.37
2016,03,12,03,43,989.40
2016,03,12,03,44,989.40
2016,03,12,03,45,989.40
2016,03,12,03,46,989.40
2016,03,12,03,47,989.47
2016,03,12,03,48,989.47
2016,03,12,03,49,989.44
2016,03,12,03,50,989.33
2016,03,12,03,51,989.27
2016,03,12,03,52,989.23
2016,03,12,03,53,989.20
2016,03,12,03,54,989.16
2016,03,12,03,55,989.23
2016,03,12,03,56,989.23
2016,03,12,03,57,989.23
2016,03,12,03,58,989.16
2016,03,12,03,59,989.13
2016,03,12,04,00,989.06
2016,03,12,04,01,989.06
2016,03,12,04,02,989.03
2016,03,12,04,03,989.06
2016,03,12,04,04,989.06
2016,03,12,04,05,989.06
2016,03,12,04,06,989.10
2016,03,12,04,07,989.03
2016,03,12,04,08,989.06
2016,03,12,04,09,989.10
2016,03,12,04,10,989.13
2016,03,12,04,11,989.20
2016,03,12,04,12,989.23
2016,03,12,04,13,989.20
2016,03,12,04,14,989.16
2016,03,12,04,15,989.13
2016,03,12,04,16,989.06
2016,03,12,04,17,989.06
2016,03,12,04,18,989.06
2016,03,12,04,19,989.10
2016,03,12,04,20,989.13
2016,03,12,04,21,989.16
2016,03,12,04,22,989.06
2016,03,12,04,23,989.03
2016,03,12,04,24,989.00
2016,03,12,04,25,989.00
2016,03,12,04,26,989.00
2016,03,12,04,27,989.03
2016,03,12,04,28,988.96
2016,03,12,04,29,989.03
2016,03,12,04,30,989.03
2016,03,12,04,31,989.03
2016,03,12,04,32,988.96
2016,03,12,04,33,988.93
2016,03,12,04,34,988.83
2016,03,12,04,35,988.93
2016,03,12,04,36,989.00
2016,03,12,04,37,989.10
2016,03,12,04,38,989.16
2016,03,12,04,39,989.20
2016,03,12,04,40,989.23
2016,03,12,04,41,989.27
2016,03,12,04,42,989.27
2016,03,12,04,43,989.30
2016,03,12,04,44,989.30
2016,03,12,04,45,989.30
2016,03,12,04,46,989.27
2016,03,12,04,47,989.27
2016,03,12,04,48,989.33
2016,03,12,04,49,989.33
2016,03,12,04,50,989.37
2016,03,12,04,51,989.37
2016,03,12,04,52,989.44
2016,03,12,04,53,989.47
2016,03,12,04,54,989.47
2016,03,12,04,55,989.47
2016,03,12,04,56,989.50
2016,03,12,04,57,989.50
2016,03,12,04,58,989.47
2016,03,12,04,59,989.54
2016,03,12,05,00,989.60
2016,03,12,05,01,989.60
2016,03,12,05,02,989.67
2016,03,12,05,03,989.74
2016,03,12,05,04,989.74
2016,03,12,05,05,989.77
2016,03,12,05,06,989.77
2016,03,12,05,07,989.81
2016,03,12,05,08,989.88
2016,03,12,05,09,989.91
2016,03,12,05,10,989.94
2016,03,12,05,11,989.98
2016,03,12,05,12,990.04
2016,03,12,05,13,990.08
2016,03,12,05,14,990.08
2016,03,12,05,15,989.98
2016,03,12,05,16,990.01
2016,03,12,05,17,989.98
2016,03,12,05,18,989.91
2016,03,12,05,19,989.91
2016,03,12,05,20,989.84
2016,03,12,05,21,989.77
2016,03,12,05,22,989.74
2016,03,12,05,23,989.67
2016,03,12,05,24,989.64
2016,03,12,05,25,989.57
2016,03,12,05,26,989.54
2016,03,12,05,27,989.50
2016,03,12,05,28,989.47
2016,03,12,05,29,989.37
2016,03,12,05,30,989.37
2016,03,12,05,31,989.33
2016,03,12,05,32,989.37
2016,03,12,05,33,989.44
2016,03,12,05,34,989.47
2016,03,12,05,35,989.47
2016,03,12,05,36,989.50
2016,03,12,05,37,989.54
2016,03,12,05,38,989.54
2016,03,12,05,39,989.54
2016,03,12,05,40,989.57
2016,03,12,05,41,989.64
2016,03,12,05,42,989.60
2016,03,12,05,43,989.64
2016,03,12,05,44,989.64
2016,03,12,05,45,989.67
2016,03,12,05,46,989.67
2016,03,12,05,47,989.74
2016,03,12,05,48,989.74
2016,03,12,05,49,989.71
2016,03,12,05,50,989.64
2016,03,12,05,51,989.67
2016,03,12,05,52,989.67
2016,03,12,05,53,989.67
2016,03,12,05,54,989.60
2016,03,12,05,55,989.64
2016,03,12,05,56,989.60
2016,03,12,05,57,989.64
2016,03,12,05,58,989.60
2016,03,12,05,59,989.60
2016,03,12,06,00,989.54
2016,03,12,06,01,989.57
2016,03,12,06,02,989.54
2016,03,12,06,03,989.64
2016,03,12,06,04,989.71
2016,03,12,06,05,989.77
2016,03,12,06,06,989.81
2016,03,12,06,07,989.94
2016,03,12,06,08,989.98
2016,03,12,06,09,989.98
2016,03,12,06,10,990.04
2016,03,12,06,11,990.04
2016,03,12,06,12,990.08
2016,03,12,06,13,990.04
2016,03,12,06,14,990.08
2016,03,12,06,15,990.11
2016,03,12,06,16,990.11
2016,03,12,06,17,990.04
2016,03,12,06,18,990.04
2016,03,12,06,19,989.98
2016,03,12,06,20,989.98
2016,03,12,06,21,990.01
2016,03,12,06,22,990.04
2016,03,12,06,23,990.04
2016,03,12,06,24,990.04
2016,03,12,06,25,990.04
2016,03,12,06,26,990.04
2016,03,12,06,27,989.98
2016,03,12,06,28,989.94
2016,03,12,06,29,989.98
2016,03,12,06,30,990.01
2016,03,12,06,31,990.08
2016,03,12,06,32,990.08
2016,03,12,06,33,990.11
2016,03,12,06,34,990.11
2016,03,12,06,35,990.15
2016,03,12,06,36,990.18
2016,03,12,06,37,990.25
2016,03,12,06,38,990.21
2016,03,12,06,39,990.25
2016,03,12,06,40,990.32
2016,03,12,06,41,990.38
2016,03,12,06,42,990.45
2016,03,12,06,43,990.49
2016,03,12,06,44,990.49
2016,03,12,06,45,990.49
2016,03,12,06,46,990.49
2016,03,12,06,47,990.52
2016,03,12,06,48,990.59
2016,03,12,06,49,990.69
2016,03,12,06,50,990.69
2016,03,12,06,51,990.69
2016,03,12,06,52,990.59
2016,03,12,06,53,990.59
2016,03,12,06,54,990.66
2016,03,12,06,55,990.76
2016,03,12,06,56,990.82
2016,03,12,06,57,990.96
2016,03,12,06,58,990.99
2016,03,12,06,59,990.99
2016,03,12,07,00,990.96
2016,03,12,07,01,990.96
2016,03,12,07,02,990.96
2016,03,12,07,03,990.89
2016,03,12,07,04,990.89
2016,03,12,07,05,990.93
2016,03,12,07,06,990.96
2016,03,12,07,07,990.93
2016,03,12,07,08,990.96
2016,03,12,07,09,990.96
2016,03,12,07,10,990.99
2016,03,12,07,11,991.03
2016,03,12,07,12,991.09
2016,03,12,07,13,991.09
2016,03,12,07,14,991.20
2016,03,12,07,15,991.20
2016,03,12,07,16,991.20
2016,03,12,07,17,991.20
2016,03,12,07,18,991.23
2016,03,12,07,19,991.20
2016,03,12,07,20,991.13
2016,03,12,07,21,991.13
2016,03,12,07,22,991.09
2016,03,12,07,23,991.03
2016,03,12,07,24,991.16
2016,03,12,07,25,991.13
2016,03,12,07,26,991.16
2016,03,12,07,27,991.20
2016,03,12,07,28,991.16
2016,03,12,07,29,991.13
2016,03,12,07,30,991.20
2016,03,12,07,31,991.16
2016,03,12,07,32,991.23
2016,03,12,07,33,991.20
2016,03,12,07,34,991.20
2016,03,12,07,35,991.23
2016,03,12,07,36,991.20
2016,03,12,07,37,991.26
2016,03,12,07,38,991.26
2016,03,12,07,39,991.30
2016,03,12,07,40,991.30
2016,03,12,07,41,991.30
2016,03,12,07,42,991.23
2016,03,12,07,43,991.26
2016,03,12,07,44,991.37
2016,03,12,07,45,991.40
2016,03,12,07,46,991.40
2016,03,12,07,47,991.43
2016,03,12,07,48,991.43
2016,03,12,07,49,991.40
2016,03,12,07,50,991.47
2016,03,12,07,51,991.43
2016,03,12,07,52,991.47
2016,03,12,07,53,991.53
2016,03,12,07,54,991.53
2016,03,12,07,55,991.60
2016,03,12,07,56,991.50
2016,03,12,07,57,991.60
2016,03,12,07,58,991.60
2016,03,12,07,59,991.64
2016,03,12,08,00,991.67
2016,03,12,08,01,991.67
2016,03,12,08,02,991.64
2016,03,12,08,03,991.70
2016,03,12,08,04,991.70
2016,03,12,08,05,991.70
2016,03,12,08,06,991.74
2016,03,12,08,07,991.70
2016,03,12,08,08,991.70
2016,03,12,08,09,991.77
2016,03,12,08,10,991.70
2016,03,12,08,11,991.77
2016,03,12,08,12,991.84
2016,03,12,08,13,991.91
2016,03,12,08,14,991.98
2016,03,12,08,15,992.04
2016,03,12,08,16,992.01
2016,03,12,08,17,992.01
2016,03,12,08,18,992.11
2016,03,12,08,19,992.14
2016,03,12,08,20,992.25
2016,03,12,08,21,992.21
2016,03,12,08,22,992.21
2016,03,12,08,23,992.18
2016,03,12,08,24,992.14
2016,03,12,08,25,992.14
2016,03,12,08,26,992.11
2016,03,12,08,27,992.08
2016,03,12,08,28,992.04
2016,03,12,08,29,991.98
2016,03,12,08,30,992.01
2016,03,12,08,31,992.01
2016,03,12,08,32,992.04
2016,03,12,08,33,992.04
2016,03,12,08,34,992.08
2016,03,12,08,35,992.08
2016,03,12,08,36,992.08
2016,03,12,08,37,992.14
2016,03,12,08,38,992.11
2016,03,12,08,39,992.08
2016,03,12,08,40,992.11
2016,03,12,08,41,992.04
2016,03,12,08,42,992.14
2016,03,12,08,43,992.14
2016,03,12,08,44,992.14
2016,03,12,08,45,992.18
2016,03,12,08,46,992.21
2016,03,12,08,47,992.31
2016,03,12,08,48,992.28
2016,03,12,08,49,992.28
2016,03,12,08,50,992.21
2016,03,12,08,51,992.18
2016,03,12,08,52,992.18
2016,03,12,08,53,992.14
2016,03,12,08,54,992.18
2016,03,12,08,55,992.18
2016,03,12,08,56,992.18
2016,03,12,08,57,992.14
2016,03,12,08,58,992.21
2016,03,12,08,59,992.25
2016,03,12,09,00,992.21
2016,03,12,09,01,992.21
2016,03,12,09,02,992.28
2016,03,12,09,03,992.18
2016,03,12,09,04,992.21
2016,03,12,09,05,992.21
2016,03,12,09,06,992.18
2016,03,12,09,07,992.21
2016,03,12,09,08,992.18
2016,03,12,09,09,992.14
2016,03,12,09,10,992.14
2016,03,12,09,11,992.08
2016,03,12,09,12,992.11
2016,03,12,09,13,992.11
2016,03,12,09,14,992.11
2016,03,12,09,15,992.14
2016,03,12,09,16,992.11
2016,03,12,09,17,992.14
2016,03,12,09,18,992.11
2016,03,12,09,19,992.18
2016,03,12,09,20,992.18
2016,03,12,09,21,992.21
2016,03,12,09,22,992.18
2016,03,12,09,23,992.18
2016,03,12,09,24,992.18
2016,03,12,09,25,992.18
2016,03,12,09,26,992.21
2016,03,12,09,27,992.21
2016,03,12,09,28,992.28
2016,03,12,09,29,992.28
2016,03,12,09,30,992.35
2016,03,12,09,31,992.42
2016,03,12,09,32,992.35
2016,03,12,09,33,992.42
2016,03,12,09,34,992.35
2016,03,12,09,35,992.38
2016,03,12,09,36,992.42
2016,03,12,09,37,992.35
2016,03,12,09,38,992.42
2016,03,12,09,39,992.42
2016,03,12,09,40,992.42
2016,03,12,09,41,992.42
2016,03,12,09,42,992.48
2016,03,12,09,43,992.48
2016,03,12,09,44,992.55
2016,03,12,09,45,992.55
2016,03,12,09,46,992.58
2016,03,12,09,47,992.58
2016,03,12,09,48,992.58
2016,03,12,09,49,992.58
2016,03,12,09,50,992.65
2016,03,12,09,51,992.65
2016,03,12,09,52,992.62
2016,03,12,09,53,992.62
2016,03,12,09,54,992.62
2016,03,12,09,55,992.65
2016,03,12,09,56,992.69
2016,03,12,09,57,992.62
2016,03,12,09,58,992.65
2016,03,12,09,59,992.62
2016,03,12,10,00,992.58
2016,03,12,10,01,992.62
2016,03,12,10,02,992.69
2016,03,12,10,03,992.69
2016,03,12,10,04,992.65
2016,03,12,10,05,992.62
2016,03,12,10,06,992.65
2016,03,12,10,07,992.69
2016,03,12,10,08,992.65
2016,03,12,10,09,992.69
2016,03,12,10,10,992.75
2016,03,12,10,11,992.75
2016,03,12,10,12,992.72
2016,03,12,10,13,992.75
2016,03,12,10,14,992.79
2016,03,12,10,15,992.72
2016,03,12,10,16,992.72
2016,03,12,10,17,992.72
2016,03,12,10,18,992.75
2016,03,12,10,19,992.69
2016,03,12,10,20,992.75
2016,03,12,10,21,992.75
2016,03,12,10,22,992.79
2016,03,12,10,23,992.75
2016,03,12,10,24,992.75
2016,03,12,10,25,992.75
2016,03,12,10,26,992.79
2016,03,12,10,27,992.72
2016,03,12,10,28,992.79
2016,03,12,10,29,992.75
2016,03,12,10,30,992.72
2016,03,12,10,31,992.72
2016,03,12,10,32,992.79
2016,03,12,10,33,992.82
2016,03,12,10,34,992.75
2016,03,12,10,35,992.75
2016,03,12,10,36,992.79
2016,03,12,10,37,992.79
2016,03,12,10,38,992.82
2016,03,12,10,39,992.89
2016,03,12,10,40,992.89
2016,03,12,10,41,992.92
2016,03,12,10,42,992.99
2016,03,12,10,43,992.96
2016,03,12,10,44,992.99
2016,03,12,10,45,992.92
2016,03,12,10,46,992.99
2016,03,12,10,47,992.99
2016,03,12,10,48,992.99
2016,03,12,10,49,993.06
2016,03,12,10,50,993.09
2016,03,12,10,51,993.09
2016,03,12,10,52,993.09
2016,03,12,10,53,993.13
2016,03,12,10,54,993.13
2016,03,12,10,55,993.13
2016,03,12,10,56,993.16
2016,03,12,10,57,993.26
2016,03,12,10,58,993.30
2016,03,12,10,59,993.30
2016,03,12,11,00,993.33
2016,03,12,11,01,993.33
2016,03,12,11,02,993.33
2016,03,12,11,03,993.40
2016,03,12,11,04,993.43
2016,03,12,11,05,993.43
2016,03,12,11,06,993.36
2016,03,12,11,07,993.40
2016,03,12,11,08,993.47
2016,03,12,11,09,993.47
2016,03,12,11,10,993.53
2016,03,12,11,11,993.57
2016,03,12,11,12,993.60
2016,03,12,11,13,993.60
2016,03,12,11,14,993.67
2016,03,12,11,15,993.74
2016,03,12,11,16,993.74
2016,03,12,11,17,993.70
2016,03,12,11,18,993.77
2016,03,12,11,19,993.80
2016,03,12,11,20,993.84
2016,03,12,11,21,993.84
2016,03,12,11,22,993.87
2016,03,12,11,23,993.91
2016,03,12,11,24,993.91
2016,03,12,11,25,993.91
2016,03,12,11,26,993.94
2016,03,12,11,27,993.94
2016,03,12,11,28,993.97
2016,03,12,11,29,994.01
2016,03,12,11,30,994.07
2016,03,12,11,31,994.07
2016,03,12,11,32,994.07
2016,03,12,11,33,994.14
2016,03,12,11,34,994.18
2016,03,12,11,35,994.14
2016,03,12,11,36,994.21
2016,03,12,11,37,994.18
2016,03,12,11,38,994.21
2016,03,12,11,39,994.21
2016,03,12,11,40,994.18
2016,03,12,11,41,994.18
2016,03,12,11,42,994.18
2016,03,12,11,43,994.18
2016,03,12,11,44,994.24
2016,03,12,11,45,994.21
2016,03,12,11,46,994.24
2016,03,12,11,47,994.28
2016,03,12,11,48,994.24
2016,03,12,11,49,994.28
2016,03,12,11,50,994.28
2016,03,12,11,51,994.31
2016,03,12,11,52,994.31
2016,03,12,11,53,994.35
2016,03,12,11,54,994.38
2016,03,12,11,55,994.31
2016,03,12,11,56,994.35
2016,03,12,11,57,994.31
2016,03,12,11,58,994.28
2016,03,12,11,59,994.31
2016,03,12,12,00,994.28
2016,03,12,12,01,994.31
2016,03,12,12,02,994.35
2016,03,12,12,03,994.31
2016,03,12,12,04,994.38
2016,03,12,12,05,994.31
2016,03,12,12,06,994.38
2016,03,12,12,07,994.38
2016,03,12,12,08,994.41
2016,03,12,12,09,994.41
2016,03,12,12,10,994.41
2016,03,12,12,11,994.38
2016,03,12,12,12,994.41
2016,03,12,12,13,994.38
2016,03,12,12,14,994.45
2016,03,12,12,15,994.38
2016,03,12,12,16,994.41
2016,03,12,12,17,994.45
2016,03,12,12,18,994.45
2016,03,12,12,19,994.41
2016,03,12,12,20,994.41
2016,03,12,12,21,994.41
2016,03,12,12,22,994.41
2016,03,12,12,23,994.41
2016,03,12,12,24,994.41
2016,03,12,12,25,994.41
2016,03,12,12,26,994.41
2016,03,12,12,27,994.41
2016,03,12,12,28,994.41
2016,03,12,12,29,994.38
2016,03,12,12,30,994.35
2016,03,12,12,31,994.35
2016,03,12,12,32,994.31
2016,03,12,12,33,994.31
2016,03,12,12,34,994.31
2016,03,12,12,35,994.31
2016,03,12,12,36,994.31
2016,03,12,12,37,994.31
2016,03,12,12,38,994.35
2016,03,12,12,39,994.35
2016,03,12,12,40,994.35
2016,03,12,12,41,994.31
2016,03,12,12,42,994.35
2016,03,12,12,43,994.31
2016,03,12,12,44,994.38
2016,03,12,12,45,994.38
2016,03,12,12,46,994.41
2016,03,12,12,47,994.41
2016,03,12,12,48,994.38
2016,03,12,12,49,994.45
2016,03,12,12,50,994.41
2016,03,12,12,51,994.41
2016,03,12,12,52,994.41
2016,03,12,12,53,994.41
2016,03,12,12,54,994.45
2016,03,12,12,55,994.45
2016,03,12,12,56,994.45
2016,03,12,12,57,994.48
2016,03,12,12,58,994.52
2016,03,12,12,59,994.52
2016,03,12,13,00,994.52
2016,03,12,13,01,994.55
2016,03,12,13,02,994.52
2016,03,12,13,03,994.55
2016,03,12,13,04,994.52
2016,03,12,13,05,994.55
2016,03,12,13,06,994.55
2016,03,12,13,07,994.58
2016,03,12,13,08,994.58
2016,03,12,13,09,994.58
2016,03,12,13,10,994.58
2016,03,12,13,11,994.58
2016,03,12,13,12,994.52
2016,03,12,13,13,994.52
2016,03,12,13,14,994.48
2016,03,12,13,15,994.45
2016,03,12,13,16,994.45
2016,03,12,13,17,994.45
2016,03,12,13,18,994.45
2016,03,12,13,19,994.41
2016,03,12,13,20,994.48
2016,03,12,13,21,994.48
2016,03,12,13,22,994.48
2016,03,12,13,23,994.48
2016,03,12,13,24,994.48
2016,03,12,13,25,994.52
2016,03,12,13,26,994.48
2016,03,12,13,27,994.52
2016,03,12,13,28,994.52
2016,03,12,13,29,994.52
2016,03,12,13,30,994.52
2016,03,12,13,31,994.48
2016,03,12,13,32,994.48
2016,03,12,13,33,994.45
2016,03,12,13,34,994.45
2016,03,12,13,35,994.48
2016,03,12,13,36,994.48
2016,03,12,13,37,994.45
2016,03,12,13,38,994.45
2016,03,12,13,39,994.48
2016,03,12,13,40,994.48
2016,03,12,13,41,994.52
2016,03,12,13,42,994.52
2016,03,12,13,43,994.52
2016,03,12,13,44,994.52
2016,03,12,13,45,994.55
2016,03,12,13,46,994.55
2016,03,12,13,47,994.55
2016,03,12,13,48,994.52
2016,03,12,13,49,994.55
2016,03,12,13,50,994.52
2016,03,12,13,51,994.52
2016,03,12,13,52,994.55
2016,03,12,13,53,994.55
2016,03,12,13,54,994.58
2016,03,12,13,55,994.55
2016,03,12,13,56,994.55
2016,03,12,13,57,994.58
2016,03,12,13,58,994.62
2016,03,12,13,59,994.58
2016,03,12,14,00,994.62
2016,03,12,14,01,994.65
2016,03,12,14,02,994.62
2016,03,12,14,03,994.62
2016,03,12,14,04,994.62
2016,03,12,14,05,994.58
2016,03,12,14,06,994.62
2016,03,12,14,07,994.58
2016,03,12,14,08,994.65
2016,03,12,14,09,994.62
2016,03,12,14,10,994.65
2016,03,12,14,11,994.65
2016,03,12,14,12,994.65
2016,03,12,14,13,994.72
2016,03,12,14,14,994.72
2016,03,12,14,15,994.68
2016,03,12,14,16,994.68
2016,03,12,14,17,994.75
2016,03,12,14,18,994.79
2016,03,12,14,19,994.75
2016,03,12,14,20,994.79
2016,03,12,14,21,994.82
2016,03,12,14,22,994.82
2016,03,12,14,23,994.82
2016,03,12,14,24,994.85
2016,03,12,14,25,994.89
2016,03,12,14,26,994.92
2016,03,12,14,27,994.89
2016,03,12,14,28,994.89
2016,03,12,14,29,994.89
2016,03,12,14,30,994.92
2016,03,12,14,31,994.89
2016,03,12,14,32,994.92
2016,03,12,14,33,994.96
2016,03,12,14,34,994.92
2016,03,12,14,35,994.92
2016,03,12,14,36,994.92
2016,03,12,14,37,994.89
2016,03,12,14,38,994.96
2016,03,12,14,39,994.96
2016,03,12,14,40,994.99
2016,03,12,14,41,994.96
2016,03,12,14,42,995.02
2016,03,12,14,43,995.06
2016,03,12,14,44,995.09
2016,03,12,14,45,995.12
2016,03,12,14,46,995.12
2016,03,12,14,47,995.09
2016,03,12,14,48,995.12
2016,03,12,14,49,995.09
2016,03,12,14,50,995.12
2016,03,12,14,51,995.16
2016,03,12,14,52,995.16
2016,03,12,14,53,995.19
2016,03,12,14,54,995.19
2016,03,12,14,55,995.19
2016,03,12,14,56,995.23
2016,03,12,14,57,995.26
2016,03,12,14,58,995.23
2016,03,12,14,59,995.26
2016,03,12,15,00,995.26
2016,03,12,15,01,995.29
2016,03,12,15,02,995.33
2016,03,12,15,03,995.36
2016,03,12,15,04,995.33
2016,03,12,15,05,995.29
2016,03,12,15,06,995.36
2016,03,12,15,07,995.33
2016,03,12,15,08,995.40
2016,03,12,15,09,995.40
2016,03,12,15,10,995.43
2016,03,12,15,11,995.40
2016,03,12,15,12,995.46
2016,03,12,15,13,995.43
2016,03,12,15,14,995.50
2016,03,12,15,15,995.50
2016,03,12,15,16,995.46
2016,03,12,15,17,995.53
2016,03,12,15,18,995.50
2016,03,12,15,19,995.50
2016,03,12,15,20,995.50
2016,03,12,15,21,995.56
2016,03,12,15,22,995.60
2016,03,12,15,23,995.60
2016,03,12,15,24,995.60
2016,03,12,15,25,995.60
2016,03,12,15,26,995.70
2016,03,12,15,27,995.67
2016,03,12,15,28,995.67
2016,03,12,15,29,995.67
2016,03,12,15,30,995.73
2016,03,12,15,31,995.77
2016,03,12,15,32,995.73
2016,03,12,15,33,995.77
2016,03,12,15,34,995.80
2016,03,12,15,35,995.87
2016,03,12,15,36,995.90
2016,03,12,15,37,995.90
2016,03,12,15,38,995.90
2016,03,12,15,39,995.97
2016,03,12,15,40,995.90
2016,03,12,15,41,996.01
2016,03,12,15,42,996.01
2016,03,12,15,43,996.07
2016,03,12,15,44,996.04
2016,03,12,15,45,996.07
2016,03,12,15,46,996.07
2016,03,12,15,47,996.01
2016,03,12,15,48,996.11
2016,03,12,15,49,996.11
2016,03,12,15,50,996.11
2016,03,12,15,51,996.07
2016,03,12,15,52,995.94
2016,03,12,15,53,995.90
2016,03,12,15,54,995.87
2016,03,12,15,55,995.90
2016,03,12,15,56,995.90
2016,03,12,15,57,995.87
2016,03,12,15,58,995.84
2016,03,12,15,59,995.84
2016,03,12,16,00,995.90
2016,03,12,16,01,995.84
2016,03,12,16,02,995.87
2016,03,12,16,03,995.87
2016,03,12,16,04,995.90
2016,03,12,16,05,995.94
2016,03,12,16,06,995.90
2016,03,12,16,07,995.94
2016,03,12,16,08,995.94
2016,03,12,16,09,995.90
2016,03,12,16,10,995.90
2016,03,12,16,11,995.97
2016,03,12,16,12,995.97
2016,03,12,16,13,995.97
2016,03,12,16,14,996.07
2016,03,12,16,15,996.01
2016,03,12,16,16,996.04
2016,03,12,16,17,996.04
2016,03,12,16,18,996.04
2016,03,12,16,19,996.04
2016,03,12,16,20,996.04
2016,03,12,16,21,996.01
2016,03,12,16,22,996.01
2016,03,12,16,23,996.01
2016,03,12,16,24,995.94
2016,03,12,16,25,995.87
2016,03,12,16,26,995.90
2016,03,12,16,27,995.80
2016,03,12,16,28,995.84
2016,03,12,16,29,995.77
2016,03,12,16,30,995.80
2016,03,12,16,31,995.80
2016,03,12,16,32,995.80
2016,03,12,16,33,995.77
2016,03,12,16,34,995.80
2016,03,12,16,35,995.77
2016,03,12,16,36,995.77